Regional Weather Roundup
Issued by NWS

Home | Current Version | Previous Version | Text Only | Print | Product List | Glossary On
Versions: 1 2 3 4 5 6 7 8 9 10 11 12 13 14 15 16 17 18 19 20 21 22 23 24 25 26 27 28 29 30 31 32 33 34 35 36 37 38 39 40 41 42 43 44 45 46 47 48 49 50
000
ASUS43 KMPX 122201
RWRMN
WEATHER ROUNDUP FOR MINNESOTA
NATIONAL WEATHER SERVICE TWIN CITIES/CHANHASSEN MN
400 PM CST TUE DEC 12 2017


NOTE: "FAIR" INDICATES FEW OR NO CLOUDS BELOW 12,000 FEET WITH NO
SIGNIFICANT WEATHER AND/OR OBSTRUCTIONS TO VISIBILITY. N/A MEANS
CURRENT SKY AND/OR WEATHER CONDITIONS ARE NOT AVAILABLE.

MNZ060>063-068>070-122300-
   Twin Cities Metro

CITY           SKY/WX    TMP DP  RH WIND       PRES   REMARKS
TWIN CITIES    CLOUDY    20  14  77 SE8       29.96F WCI  10
ST PAUL        CLOUDY    18  12  77 SE9       29.98F WCI   7
CRYSTAL        CLOUDY    19  11  70 S9        29.94F WCI   8
BLAINE         CLOUDY    19  14  79 SE9       29.94F WCI   9
LAKEVILLE      CLOUDY    19  14  79 S5        29.96F WCI  13
EDEN PRAIRIE   CLOUDY    22  14  71 S8        29.94F WCI  12
SOUTH ST PAUL  CLOUDY    19  13  75 S5        29.97F WCI  13
LAKE ELMO      CLOUDY    18  12  79 S8        29.97F WCI   7
$$
MNZ001>005-007-008-013>017-022>024-027-028-122300-
   Northwest Minnesota

CITY           SKY/WX    TMP DP  RH WIND       PRES   REMARKS
BEMIDJI        CLOUDY    18  15  89 SE7       29.76F WCI   8
HALLOCK        PTCLDY    28  27  93 SE15      29.66F WCI  17
ROSEAU         CLOUDY    19  16  86 SE8       29.72F WCI   9
WARROAD        CLOUDY    16  12  86 SE8       29.74F WCI   5
CROOKSTON      PTCLDY    30  28  93 S13       29.71F WCI  20
FOSSTON        CLOUDY    27  25  93 S12       29.73F WCI  16
DETROIT LAKES  CLOUDY    32  30  93 S8        29.77F WCI  25
MOORHEAD       PTCLDY    36  28  75 CALM      29.77F
PARK RAPIDS    CLOUDY    22  19  89 SE9       29.78F WCI  12
MAHNOMEN       CLOUDY    30  27  88 S13       29.74F WCI  20
$$
MNZ006-009>011-018-025>026-122300-
   North Central Minnesota

CITY           SKY/WX    TMP DP  RH WIND       PRES   REMARKS
BAUDETTE       CLOUDY    16  13  88 SE10      29.75F WCI   4
FLAG ISLAND    LGT SNOW  14  10  85 SE9       29.75F WCI   2
INTL FALLS     LGT SNOW  12   7  80 SE9       29.81F WCI   0
WASKISH        CLOUDY    16  12  86 SE8       29.78F WCI   5
LONGVILLE      CLOUDY    14  10  85 SE6       29.82F WCI   5
GRAND RAPIDS   LGT SNOW  13   9  84 S9        29.85F FOG     WCI   1
CRANE LAKE     CLOUDY     9   3  78 CALM      29.88F
ORR            LGT SNOW  10   5  79 SE3       29.80F
COOK           LGT SNOW  10   7  85 CALM      29.84F VSB 1
WALKER         CLOUDY    16  12  84 SE5       29.79F WCI   9
$$
MNZ012-019>021-037-122300-
   Northeast Minnesota

CITY           SKY/WX    TMP DP  RH WIND       PRES   REMARKS
DULUTH         LGT SNOW  11   6  81 S6        29.86F WCI   1
ELY            CLOUDY     9   0  66 SE3       29.85F
HIBBING        LGT SNOW  10   6  84 SE8       29.84F FOG     WCI  -2
EVELETH        LGT SNOW  10   4  77 SE5       29.86F VSB 1   WCI   1
DULUTH HARBOR  FLURRIES  16   9  73 SW3       29.95F
TWO HARBORS    CLOUDY    16   7  67 S5        29.89F WCI   9
SILVER BAY     CLOUDY    12  -2  52 S3        29.89F
GRAND MARAIS     N/A     13  -2  51 N3        29.96F
G MARAIS ARPRT CLOUDY     7  -8  51 CALM      29.84F
$$
MNZ029>031-032-039>041-046>048-054>057-064-122300-
   West Central Minnesota

CITY           SKY/WX    TMP DP  RH WIND       PRES   REMARKS
FERGUS FALLS   CLOUDY    37  30  75 W3        29.81F
WHEATON        CLEAR     41  28  60 SW9       29.82F
MORRIS         PTCLDY    41  28  60 W13       29.81F
ALEXANDRIA     CLOUDY    33  28  81 S8        29.81F WCI  26
ELBOW LAKE     CLOUDY    38  31  74 SW8       29.81F
WADENA         CLOUDY    28  25  86 S6        29.80F WCI  22
GLENWOOD       CLOUDY    34  28  80 SW9       29.82F WCI  26
APPLETON       CLOUDY    43  28  56 SW13G18   29.84F
BENSON         PTCLDY    41  30  65 W12       29.85F
ORTONVILLE     CLEAR     41  28  60 SW6       29.83F
MADISON        CLEAR     43  30  61 W8        29.85F
WILLMAR        FAIR      37  30  75 SW6       29.86F
$$
MNZ033>034-036-042>043-049>051-058-059-122300-
   Central Minnesota

CITY           SKY/WX    TMP DP  RH WIND       PRES   REMARKS
ST CLOUD       CLOUDY    21  15  78 SE10      29.88F WCI  10
SAUK CENTRE    FAIR      29  25  85 SE6       29.83F WCI  23
PAYNESVILLE    CLOUDY    31  27  84 S6        29.85F WCI  25
AITKIN         CLOUDY    12  10  92 SE9       29.85F WCI   0
PINE RIVER     CLOUDY    16  10  79 SE8       29.86F WCI   5
BRAINERD       CLOUDY    18  13  80 S10       29.85F WCI   6
STAPLES        CLOUDY    23  19  86 S6        29.82F WCI  16
LONG PRAIRIE   FAIR      27  23  86 SE6       29.84F WCI  20
LITTLE FALLS   CLOUDY    21  12  68 SE7       29.86F WCI  13
LITCHFIELD     MOCLDY    30  27  86 CALM      29.87F
BUFFALO        PTCLDY    21  15  76 SE5       29.93F WCI  15
MAPLE LAKE     CLEAR     23  19  81 SE5       29.91F WCI  17
HUTCHINSON     PTCLDY    29  24  82 S3        29.90F
$$
MNZ037-044-045-052-053-122300-
   East Central Minnesota

CITY           SKY/WX    TMP DP  RH WIND       PRES   REMARKS
PRINCETON      CLOUDY    19  14  79 SE5       29.91F WCI  13
MORA           LGT SNOW  14  10  85 S8        29.93F WCI   3
CAMBRIDGE      FLURRIES  18  10  73 S9        29.93F WCI   6
RUSH CITY      CLOUDY    15  10  81 S8        29.95F WCI   3
MOOSE LAKE     CLOUDY    16  10  79 S6        29.88F HAZE    WCI   7
HINCKLEY       CLOUDY    16  10  79 S7        29.93F WCI   6
CLOQUET        LGT SNOW  12   7  79 SE6       29.87F WCI   3
MCGREGOR       CLOUDY    18  14  86 S8        29.87F WCI   7
$$
MNZ071>073-080-081-089-090-097-098-122300-
   Southwest Minnesota

CITY           SKY/WX    TMP DP  RH WIND       PRES   REMARKS
MONTEVIDEO     PTCLDY    45  30  57 W9        29.86F
GRANITE FALLS  PTCLDY    43  31  61 SW12      29.89F
CANBY          CLEAR     42  31  64 SW15      29.87F
MARSHALL       CLEAR     40  28  62 SW15      29.87F
REDWOOD FALLS  CLEAR     39  28  64 SW9       29.89F
OLIVIA         CLEAR     36  30  80 S8        29.86F
PIPESTONE      CLEAR     37  28  70 W12       29.89F
WINDOM           N/A     36  21  55 SW9       29.92F
WORTHINGTON    CLEAR     35  27  72 SW17      29.92F WCI  25
JACKSON        CLEAR     34  27  75 MISG      29.93F
TRACY          CLEAR     38  31  76 SW15      29.88F
SLAYTON        CLEAR     36  29  77 SW16      29.92F
$$
MNZ065>067-074>077-082>085-091>093-122300-
   South Central Minnesota

CITY           SKY/WX    TMP DP  RH WIND       PRES   REMARKS
MANKATO        CLOUDY    29  23  78 S8        29.94F WCI  21
NEW ULM        CLEAR     34  25  69 SW8       29.92F WCI  27
ST JAMES       CLEAR     34  27  75 SW7       29.94F WCI  28
FAIRMONT       CLEAR     34  25  69 SW10      29.94F WCI  26
GLENCOE        CLEAR     27  22  82 S3        29.91F
FARIBAULT      CLOUDY    25  18  74 S6        29.95F WCI  18
OWATONNA       CLOUDY    25  19  80 S8        29.95F WCI  16
WASECA         CLOUDY    28  21  74 S9        29.95F WCI  20
$$
MNZ078>079-086>088-094>096-122300-
   Southeast Minnesota

CITY           SKY/WX    TMP DP  RH WIND       PRES   REMARKS
ROCHESTER      CLOUDY    20  14  77 SW9       29.97F WCI   9
RED WING       CLOUDY    19   9  63 SE3       29.99F
STANTON        CLOUDY    23  17  75 S7        29.95F WCI  15
DODGE CENTER   CLOUDY    21  16  79 S9        29.95F WCI  11
WINONA         CLOUDY    21   9  58 CALM      30.03F
PRESTON        CLOUDY    20  11  68 SW8       29.99F WCI  11
$$
ABBREVIATIONS USED IN REMARKS
   TC - TEMPERATURES IN CELSIUS
  WCI - WIND CHILL INDEX
   HX - HEAT INDEX
  VSB - VISIBILITY
$$




USA.gov is the U.S. government's official web portal to all federal, state and local government web resources and services.